| time (UTC) | temp F | wind direction | speed knots | gust knots | rain 1hr in | rain 24hr in | rain mn in | humidity % | barometer mb |
| 20260502205045 | 60 | 0 | 0.0 | 0.0 | 0.04 | 0.09 | 0.09 | 92 | 1016.9 |
| 20260502204559 | 60 | 0 | 0.0 | 0.0 | 0.03 | 0.08 | 0.08 | 92 | 1017.1 |
| 20260502204044 | 60 | 0 | 0.0 | 0.0 | 0.03 | 0.08 | 0.08 | 92 | 1017.0 |
| 20260502203546 | 60 | 0 | 0.0 | 0.0 | 0.03 | 0.08 | 0.08 | 92 | 1017.0 |
| 20260502203057 | 60 | 0 | 0.0 | 0.0 | 0.03 | 0.08 | 0.08 | 92 | 1017.1 |
| 20260502202545 | 60 | 0 | 0.0 | 0.0 | 0.03 | 0.08 | 0.08 | 92 | 1017.0 |
| 20260502202045 | 60 | 0 | 0.0 | 2.6 | 0.03 | 0.07 | 0.07 | 91 | 1017.1 |
| 20260502201611 | 60 | 0 | 0.0 | 5.2 | 0.03 | 0.07 | 0.07 | 91 | 1017.4 |
| 20260502201047 | 60 | 0 | 0.0 | 11.3 | 0.03 | 0.07 | 0.07 | 91 | 1017.1 |
| 20260502200546 | 60 | 0 | 0.0 | 11.3 | 0.03 | 0.07 | 0.07 | 92 | 1017.1 |
| 20260502200056 | 61 | 0 | 0.0 | 10.4 | 0.00 | 0.04 | 0.04 | 92 | 1017.3 |
| 20260502195545 | 61 | 0 | 1.7 | 10.4 | 0.00 | 0.04 | 0.04 | 92 | 1017.8 |
| 20260502195048 | 60 | 242 | 0.9 | 13.9 | 0.00 | 0.04 | 0.04 | 92 | 1017.6 |
| 20260502194559 | 61 | 242 | 1.7 | 13.9 | 0.00 | 0.04 | 0.04 | 91 | 1017.2 |
| 20260502194048 | 61 | 0 | 2.6 | 13.9 | 0.00 | 0.04 | 0.04 | 92 | 1017.0 |
| 20260502193545 | 61 | 0 | 0.0 | 0.0 | 0.00 | 0.04 | 0.04 | 92 | 1015.9 |
| 20260502193100 | 61 | 0 | 0.0 | 0.0 | 0.00 | 0.04 | 0.04 | 91 | 1015.6 |
| 20260502192546 | 61 | 0 | 0.0 | 0.0 | 0.00 | 0.04 | 0.04 | 91 | 1015.5 |
| 20260502192046 | 62 | 0 | 0.0 | 0.0 | 0.00 | 0.04 | 0.04 | 91 | 1015.5 |
| 20260502191601 | 62 | 0 | 0.0 | 0.0 | 0.02 | 0.04 | 0.04 | 91 | 1015.6 |
| 20260502191047 | 62 | 0 | 0.0 | 0.0 | 0.04 | 0.04 | 0.04 | 90 | 1015.7 |
| 20260502190548 | 62 | 0 | 0.0 | 0.0 | 0.04 | 0.04 | 0.04 | 90 | 1015.7 |
| 20260502190057 | 62 | 0 | 0.0 | 0.0 | 0.04 | 0.04 | 0.04 | 89 | 1015.7 |
| 20260502185546 | 62 | 0 | 0.0 | 0.0 | 0.04 | 0.04 | 0.04 | 89 | 1015.6 |
| 20260502185046 | 62 | 0 | 0.0 | 0.0 | 0.04 | 0.04 | 0.04 | 88 | 1015.7 |
| 20260502184604 | 63 | 0 | 0.0 | 0.0 | 0.04 | 0.04 | 0.04 | 87 | 1015.7 |
| 20260502184046 | 63 | 0 | 0.0 | 0.0 | 0.04 | 0.04 | 0.04 | 85 | 1015.9 |
| 20260502183544 | 63 | 0 | 0.0 | 0.0 | 0.04 | 0.04 | 0.04 | 85 | 1015.9 |
| 20260502183103 | 64 | 0 | 0.0 | 0.0 | 0.04 | 0.04 | 0.04 | 82 | 1016.3 |
| 20260502182547 | 65 | 0 | 0.0 | 1.7 | 0.03 | 0.03 | 0.03 | 80 | 1016.5 |
| 20260502182045 | 66 | 0 | 0.0 | 1.7 | 0.03 | 0.03 | 0.03 | 76 | 1015.9 |
| 20260502181600 | 66 | 0 | 0.0 | 1.7 | 0.02 | 0.02 | 0.02 | 72 | 1016.3 |
| 20260502181051 | 66 | 0 | 0.0 | 0.0 | 0.00 | 0.00 | 0.00 | 72 | 1015.6 |
| 20260502180545 | 67 | 0 | 0.0 | 0.0 | 0.00 | 0.00 | 0.00 | 71 | 1015.4 |
| 20260502164049 | 68 | 0 | 0.0 | 0.0 | 0.00 | 0.00 | 0.00 | 68 | 1016.1 |
| 20260502163546 | 68 | 0 | 0.0 | 0.0 | 0.00 | 0.00 | 0.00 | 69 | 1016.4 |
| 20260502163056 | 68 | 0 | 0.0 | 0.0 | 0.00 | 0.00 | 0.00 | 68 | 1016.6 |
| 20260502162546 | 68 | 0 | 0.0 | 0.0 | 0.00 | 0.00 | 0.00 | 69 | 1016.7 |
| 20260502162044 | 68 | 0 | 0.0 | 0.0 | 0.00 | 0.00 | 0.00 | 69 | 1016.7 |
| 20260502161555 | 68 | 0 | 0.0 | 0.0 | 0.00 | 0.00 | 0.00 | 68 | 1016.7 |
| 20260502161047 | 68 | 0 | 0.0 | 0.0 | 0.00 | 0.00 | 0.00 | 67 | 1016.8 |
| 20260502160546 | 69 | 0 | 0.0 | 0.0 | 0.00 | 0.00 | 0.00 | 67 | 1016.7 |
| 20260502152048 | 68 | 0 | 0.0 | 0.0 | 0.00 | 0.00 | 0.00 | 67 | 1017.0 |
| 20260502151617 | 68 | 0 | 0.0 | 0.0 | 0.00 | 0.00 | 0.00 | 65 | 1017.0 |
| 20260502151044 | 68 | 0 | 0.0 | 0.0 | 0.00 | 0.00 | 0.00 | 65 | 1017.3 |
| 20260502150547 | 69 | 0 | 0.0 | 0.0 | 0.00 | 0.00 | 0.00 | 64 | 1017.3 |
| 20260502150106 | 69 | 0 | 0.0 | 0.0 | 0.00 | 0.00 | 0.00 | 62 | 1017.4 |
| 20260502130545 | 78 | 157 | 0.9 | 9.6 | 0.00 | 0.00 | 0.00 | 42 | 1018.0 |
| 20260502123545 | 77 | 0 | 0.0 | 10.4 | 0.00 | 0.00 | 0.00 | 42 | 1018.3 |
| 20260502123101 | 77 | 0 | 0.9 | 10.4 | 0.00 | 0.00 | 0.00 | 42 | 1018.4 |
| 20260502122545 | 78 | 244 | 3.5 | 10.4 | 0.00 | 0.00 | 0.00 | 42 | 1018.4 |
| 20260502122046 | 78 | 228 | 0.9 | 8.7 | 0.00 | 0.00 | 0.00 | 43 | 1018.5 |
| 20260502121551 | 77 | 220 | 0.9 | 8.7 | 0.00 | 0.00 | 0.00 | 43 | 1018.5 |
| 20260502121046 | 77 | 255 | 0.9 | 9.6 | 0.00 | 0.00 | 0.00 | 42 | 1018.6 |
| 20260502120546 | 78 | 0 | 2.6 | 10.4 | 0.00 | 0.00 | 0.00 | 42 | 1018.7 |
| 20260502115545 | 77 | 0 | 1.7 | 9.6 | 0.00 | 0.00 | 0.00 | 42 | 1018.7 |
| 20260502115045 | 77 | 0 | 0.9 | 7.8 | 0.00 | 0.00 | 0.00 | 43 | 1018.7 |
| 20260502114558 | 77 | 229 | 0.0 | 7.8 | 0.00 | 0.00 | 0.00 | 43 | 1018.9 |
| 20260502114045 | 76 | 190 | 0.0 | 8.7 | 0.00 | 0.00 | 0.00 | 44 | 1019.0 |
| 20260502113547 | 77 | 0 | 2.6 | 8.7 | 0.00 | 0.00 | 0.00 | 43 | 1019.1 |
| 20260502113057 | 77 | 0 | 0.0 | 4.3 | 0.00 | 0.00 | 0.00 | 43 | 1019.1 |
| 20260502112542 | 76 | 208 | 0.0 | 7.8 | 0.00 | 0.00 | 0.00 | 44 | 1019.1 |
| 20260502112045 | 76 | 0 | 0.9 | 9.6 | 0.00 | 0.00 | 0.00 | 44 | 1019.3 |
| 20260502111556 | 76 | 192 | 0.9 | 9.6 | 0.00 | 0.00 | 0.00 | 46 | 1019.4 |
| 20260502111045 | 76 | 0 | 0.9 | 9.6 | 0.00 | 0.00 | 0.00 | 45 | 1019.4 |
| 20260502110546 | 76 | 0 | 0.9 | 6.1 | 0.00 | 0.00 | 0.00 | 46 | 1019.3 |
| 20260502110101 | 76 | 0 | 0.0 | 13.0 | 0.00 | 0.00 | 0.00 | 43 | 1019.4 |
| 20260502105550 | 76 | 252 | 1.7 | 13.0 | 0.00 | 0.00 | 0.00 | 43 | 1019.4 |
| 20260502105045 | 76 | 238 | 2.6 | 9.6 | 0.00 | 0.00 | 0.00 | 43 | 1019.5 |
| 20260502104555 | 76 | 219 | 2.6 | 9.6 | 0.00 | 0.00 | 0.00 | 42 | 1019.6 |
| 20260502104045 | 76 | 0 | 1.7 | 7.8 | 0.00 | 0.00 | 0.00 | 44 | 1019.7 |
| 20260502103542 | 75 | 0 | 1.7 | 7.8 | 0.00 | 0.00 | 0.00 | 43 | 1019.8 |
| 20260502103101 | 75 | 241 | 2.6 | 9.6 | 0.00 | 0.00 | 0.00 | 42 | 1019.9 |
| 20260502102545 | 76 | 232 | 1.7 | 9.6 | 0.00 | 0.00 | 0.00 | 42 | 1019.9 |
| 20260502102045 | 76 | 0 | 0.0 | 12.2 | 0.00 | 0.00 | 0.00 | 41 | 1019.9 |
| 20260502101631 | 76 | 247 | 2.6 | 12.2 | 0.00 | 0.00 | 0.00 | 41 | 1019.9 |
| 20260502101045 | 76 | 245 | 2.6 | 9.6 | 0.00 | 0.00 | 0.00 | 42 | 1020.0 |
| 20260502100544 | 76 | 212 | 1.7 | 9.6 | 0.00 | 0.00 | 0.00 | 41 | 1020.0 |
| 20260502100116 | 76 | 0 | 0.0 | 7.0 | 0.00 | 0.00 | 0.00 | 40 | 1020.0 |
| 20260502091046 | 73 | 229 | 1.7 | 10.4 | 0.00 | 0.00 | 0.00 | 41 | 1020.1 |
| 20260502090545 | 72 | 198 | 3.5 | 10.4 | 0.00 | 0.00 | 0.00 | 41 | 1020.2 |
| 20260502080104 | 69 | 188 | 0.0 | 7.8 | 0.00 | 0.00 | 0.00 | 42 | 1020.2 |
| 20260502071045 | 66 | 0 | 2.6 | 8.7 | 0.00 | 0.00 | 0.00 | 45 | 1020.4 |
| 20260502070549 | 66 | 0 | 0.9 | 7.8 | 0.00 | 0.00 | 0.00 | 45 | 1020.5 |
| 20260502070055 | 65 | 0 | 0.0 | 7.0 | 0.00 | 0.00 | 0.00 | 47 | 1020.6 |
| 20260502065546 | 65 | 0 | 0.0 | 8.7 | 0.00 | 0.00 | 0.00 | 48 | 1020.5 |
| 20260502065045 | 64 | 0 | 2.6 | 8.7 | 0.00 | 0.00 | 0.00 | 47 | 1020.5 |
| 20260502064552 | 64 | 202 | 0.9 | 8.7 | 0.00 | 0.00 | 0.00 | 48 | 1020.5 |
| 20260502064047 | 63 | 0 | 0.9 | 6.1 | 0.00 | 0.00 | 0.00 | 49 | 1020.6 |
| 20260502063546 | 63 | 0 | 0.0 | 7.8 | 0.00 | 0.00 | 0.00 | 49 | 1020.4 |
| 20260502063054 | 62 | 0 | 0.0 | 7.8 | 0.00 | 0.00 | 0.00 | 50 | 1020.3 |
| 20260502062548 | 62 | 0 | 0.0 | 8.7 | 0.00 | 0.00 | 0.00 | 50 | 1020.3 |
| 20260502062044 | 61 | 0 | 0.9 | 8.7 | 0.00 | 0.00 | 0.00 | 51 | 1020.4 |
| 20260502061554 | 60 | 0 | 0.0 | 7.0 | 0.00 | 0.00 | 0.00 | 52 | 1020.5 |
| 20260502061043 | 60 | 0 | 0.0 | 6.1 | 0.00 | 0.00 | 0.00 | 53 | 1020.4 |
| 20260502060544 | 59 | 221 | 0.0 | 6.1 | 0.00 | 0.00 | 0.00 | 54 | 1020.5 |
| 20260502060054 | 59 | 0 | 0.0 | 2.6 | 0.00 | 0.00 | 0.00 | 55 | 1020.4 |
| 20260502055546 | 58 | 0 | 0.0 | 2.6 | 0.00 | 0.00 | 0.00 | 55 | 1020.4 |
| 20260502055045 | 58 | 0 | 0.0 | 1.7 | 0.00 | 0.00 | 0.00 | 55 | 1020.5 |
| 20260502054550 | 58 | 0 | 0.0 | 1.7 | 0.00 | 0.00 | 0.00 | 55 | 1020.5 |
| 20260502054045 | 58 | 0 | 0.0 | 5.2 | 0.00 | 0.00 | 0.00 | 55 | 1020.5 |
| 20260502053545 | 58 | 0 | 0.0 | 5.2 | 0.00 | 0.00 | 0.00 | 55 | 1020.5 |
| 20260502053109 | 57 | 0 | 0.0 | 2.6 | 0.00 | 0.00 | 0.00 | 55 | 1020.5 |
| 20260502052545 | 57 | 0 | 0.0 | 0.9 | 0.00 | 0.00 | 0.00 | 55 | 1020.4 |
| 20260502052045 | 57 | 0 | 0.0 | 4.3 | 0.00 | 0.00 | 0.00 | 55 | 1020.4 |
| 20260502051551 | 57 | 0 | 0.0 | 4.3 | 0.00 | 0.00 | 0.00 | 54 | 1020.5 |
| 20260502051044 | 57 | 0 | 0.0 | 7.0 | 0.00 | 0.00 | 0.00 | 54 | 1020.5 |
| 20260502050545 | 57 | 0 | 0.0 | 7.0 | 0.00 | 0.00 | 0.00 | 54 | 1020.4 |
| 20260502050049 | 57 | 0 | 0.0 | 7.8 | 0.00 | 0.00 | 0.00 | 54 | 1020.4 |
| 20260502045547 | 57 | 164 | 0.0 | 7.8 | 0.00 | 0.00 | 0.00 | 55 | 1020.6 |
| 20260502045043 | 57 | 0 | 0.0 | 3.5 | 0.00 | 0.00 | 0.00 | 56 | 1020.5 |
| 20260502044552 | 56 | 0 | 0.0 | 3.5 | 0.00 | 0.00 | 0.00 | 56 | 1020.6 |
| 20260502044045 | 56 | 0 | 0.0 | 0.9 | 0.00 | 0.00 | 0.00 | 57 | 1020.6 |
| 20260502043545 | 56 | 0 | 0.0 | 4.3 | 0.00 | 0.00 | 0.00 | 57 | 1020.7 |
| 20260502043101 | 55 | 0 | 0.0 | 4.3 | 0.00 | 0.00 | 0.00 | 57 | 1020.8 |
| 20260502042546 | 55 | 0 | 0.0 | 0.0 | 0.00 | 0.00 | 0.00 | 57 | 1020.7 |
| 20260502042046 | 56 | 0 | 0.0 | 0.9 | 0.00 | 0.00 | 0.00 | 57 | 1020.8 |
| 20260502041549 | 56 | 0 | 0.0 | 0.9 | 0.00 | 0.00 | 0.00 | 56 | 1020.9 |
| 20260502041045 | 56 | 0 | 0.0 | 2.6 | 0.00 | 0.00 | 0.00 | 55 | 1020.8 |
| 20260502040545 | 56 | 0 | 0.0 | 2.6 | 0.00 | 0.00 | 0.00 | 55 | 1021.0 |
| 20260502040056 | 57 | 0 | 0.0 | 2.6 | 0.00 | 0.00 | 0.00 | 54 | 1020.9 |
| 20260502035545 | 57 | 0 | 0.0 | 0.9 | 0.00 | 0.00 | 0.00 | 54 | 1020.9 |
| 20260502035050 | 57 | 0 | 0.0 | 0.9 | 0.00 | 0.00 | 0.00 | 53 | 1020.9 |
| 20260502034554 | 57 | 0 | 0.0 | 0.9 | 0.00 | 0.00 | 0.00 | 53 | 1020.9 |
| 20260502034045 | 58 | 0 | 0.0 | 0.9 | 0.00 | 0.00 | 0.00 | 52 | 1021.0 |
| 20260502033544 | 58 | 0 | 0.0 | 0.0 | 0.00 | 0.00 | 0.00 | 52 | 1021.0 |
| 20260502033101 | 58 | 0 | 0.0 | 0.0 | 0.00 | 0.00 | 0.00 | 52 | 1021.1 |
| 20260502032544 | 58 | 0 | 0.0 | 0.9 | 0.00 | 0.00 | 0.00 | 51 | 1021.0 |
| 20260502032045 | 58 | 0 | 0.0 | 1.7 | 0.00 | 0.00 | 0.00 | 51 | 1021.1 |
| 20260502031553 | 58 | 0 | 0.0 | 1.7 | 0.00 | 0.00 | 0.00 | 51 | 1021.1 |
| 20260502031042 | 58 | 0 | 0.0 | 0.9 | 0.00 | 0.00 | 0.00 | 51 | 1021.0 |
| 20260502030545 | 58 | 0 | 0.0 | 2.6 | 0.00 | 0.00 | 0.00 | 52 | 1021.1 |
| 20260502030100 | 58 | 0 | 0.0 | 2.6 | 0.00 | 0.00 | 0.00 | 51 | 1021.2 |
| 20260502025545 | 59 | 0 | 0.0 | 2.6 | 0.00 | 0.00 | 0.00 | 51 | 1021.3 |
| 20260502025045 | 59 | 0 | 0.0 | 2.6 | 0.00 | 0.00 | 0.00 | 51 | 1021.3 |
| 20260502024549 | 59 | 0 | 0.0 | 0.9 | 0.00 | 0.00 | 0.00 | 51 | 1021.3 |
| 20260502024047 | 59 | 0 | 0.0 | 0.9 | 0.00 | 0.00 | 0.00 | 51 | 1021.4 |
| 20260502023548 | 59 | 189 | 0.0 | 1.7 | 0.00 | 0.00 | 0.00 | 51 | 1021.4 |
| 20260502023109 | 59 | 0 | 0.0 | 1.7 | 0.00 | 0.00 | 0.00 | 51 | 1021.4 |
| 20260502022542 | 59 | 0 | 0.0 | 1.7 | 0.00 | 0.00 | 0.00 | 51 | 1021.5 |
| 20260502022044 | 59 | 0 | 0.0 | 2.6 | 0.00 | 0.00 | 0.00 | 51 | 1021.4 |
| 20260502021549 | 59 | 0 | 0.0 | 3.5 | 0.00 | 0.00 | 0.00 | 51 | 1021.5 |
| 20260502021045 | 59 | 0 | 0.0 | 3.5 | 0.00 | 0.00 | 0.00 | 51 | 1021.5 |
| 20260502020543 | 59 | 0 | 0.0 | 0.0 | 0.00 | 0.00 | 0.00 | 51 | 1021.6 |
| 20260502020052 | 59 | 0 | 0.0 | 0.0 | 0.00 | 0.00 | 0.00 | 51 | 1021.7 |
| 20260502015545 | 59 | 0 | 0.0 | 0.0 | 0.00 | 0.00 | 0.00 | 51 | 1021.7 |
| 20260502015041 | 59 | 0 | 0.0 | 0.0 | 0.00 | 0.00 | 0.00 | 52 | 1021.7 |
| 20260502014549 | 59 | 0 | 0.0 | 0.0 | 0.00 | 0.00 | 0.00 | 52 | 1021.7 |
| 20260502014048 | 59 | 0 | 0.0 | 0.0 | 0.00 | 0.00 | 0.00 | 52 | 1021.7 |
| 20260502013546 | 58 | 0 | 0.0 | 1.7 | 0.00 | 0.00 | 0.00 | 52 | 1021.9 |
| 20260502013050 | 58 | 0 | 0.0 | 2.6 | 0.00 | 0.00 | 0.00 | 52 | 1021.9 |
| 20260502012545 | 58 | 0 | 0.0 | 2.6 | 0.00 | 0.00 | 0.00 | 53 | 1021.9 |
| 20260502012045 | 58 | 0 | 0.0 | 0.0 | 0.00 | 0.00 | 0.00 | 52 | 1022.0 |
| 20260502011557 | 58 | 0 | 0.0 | 0.0 | 0.00 | 0.00 | 0.00 | 53 | 1022.0 |
| 20260502011045 | 58 | 0 | 0.0 | 0.0 | 0.00 | 0.00 | 0.00 | 52 | 1022.1 |
| 20260502010550 | 58 | 0 | 0.0 | 0.0 | 0.00 | 0.00 | 0.00 | 53 | 1022.1 |
| 20260502010048 | 58 | 0 | 0.0 | 1.7 | 0.00 | 0.00 | 0.00 | 53 | 1022.1 |
| 20260502005544 | 58 | 0 | 0.0 | 1.7 | 0.00 | 0.00 | 0.00 | 53 | 1022.3 |
| 20260502005046 | 58 | 0 | 0.0 | 1.7 | 0.00 | 0.00 | 0.00 | 52 | 1022.3 |
| 20260502004607 | 59 | 0 | 0.0 | 0.9 | 0.00 | 0.00 | 0.00 | 52 | 1022.3 |
| 20260502004041 | 59 | 0 | 0.0 | 2.6 | 0.00 | 0.00 | 0.00 | 52 | 1022.3 |
| 20260502003544 | 59 | 0 | 0.0 | 2.6 | 0.00 | 0.00 | 0.00 | 52 | 1022.4 |
| 20260502003051 | 59 | 0 | 0.0 | 0.9 | 0.00 | 0.00 | 0.00 | 52 | 1022.5 |
| 20260502002545 | 59 | 0 | 0.0 | 0.9 | 0.00 | 0.00 | 0.00 | 52 | 1022.5 |
| 20260502002045 | 59 | 0 | 0.0 | 1.7 | 0.00 | 0.00 | 0.00 | 52 | 1022.5 |
| 20260502001553 | 59 | 0 | 0.0 | 1.7 | 0.00 | 0.00 | 0.00 | 52 | 1022.5 |
| 20260502001048 | 59 | 0 | 0.0 | 0.9 | 0.00 | 0.00 | 0.00 | 52 | 1022.6 |
| 20260502000541 | 59 | 0 | 0.0 | 0.9 | 0.00 | 0.00 | 0.00 | 52 | 1022.6 |
| 20260502000050 | 59 | 0 | 0.0 | 0.0 | 0.00 | 0.00 | 0.00 | 53 | 1022.7 |
| 20260501235544 | 58 | 0 | 0.0 | 0.0 | 0.00 | 0.00 | 0.00 | 54 | 1022.7 |
| 20260501235041 | 58 | 0 | 0.0 | 0.0 | 0.00 | 0.00 | 0.00 | 55 | 1022.7 |
| 20260501234548 | 57 | 0 | 0.0 | 0.0 | 0.00 | 0.00 | 0.00 | 56 | 1022.7 |
| 20260501234045 | 57 | 0 | 0.0 | 0.0 | 0.00 | 0.00 | 0.00 | 58 | 1022.8 |
| 20260501233544 | 56 | 0 | 0.0 | 0.0 | 0.00 | 0.00 | 0.00 | 59 | 1022.8 |
| 20260501233051 | 55 | 0 | 0.0 | 0.0 | 0.00 | 0.00 | 0.00 | 62 | 1022.9 |
| 20260501232544 | 54 | 0 | 0.0 | 0.0 | 0.00 | 0.00 | 0.00 | 65 | 1022.9 |
| 20260501232045 | 53 | 0 | 0.0 | 0.0 | 0.00 | 0.00 | 0.00 | 68 | 1022.9 |
| 20260501231559 | 52 | 0 | 0.0 | 0.0 | 0.00 | 0.00 | 0.00 | 70 | 1023.0 |
| 20260501231045 | 52 | 0 | 0.0 | 0.0 | 0.00 | 0.00 | 0.00 | 72 | 1023.0 |
| 20260501230545 | 52 | 0 | 0.0 | 0.0 | 0.00 | 0.00 | 0.00 | 73 | 1023.0 |
| 20260501230053 | 51 | 0 | 0.0 | 0.0 | 0.00 | 0.00 | 0.00 | 73 | 1023.0 |
| 20260501225545 | 51 | 0 | 0.0 | 0.0 | 0.00 | 0.00 | 0.00 | 74 | 1023.1 |
| 20260501225044 | 51 | 0 | 0.0 | 0.0 | 0.00 | 0.00 | 0.00 | 75 | 1023.1 |
| 20260501224553 | 51 | 0 | 0.0 | 0.0 | 0.00 | 0.00 | 0.00 | 76 | 1023.2 |
| 20260501224044 | 51 | 0 | 0.0 | 0.0 | 0.00 | 0.00 | 0.00 | 77 | 1023.1 |
| 20260501223545 | 51 | 0 | 0.0 | 0.0 | 0.00 | 0.00 | 0.00 | 76 | 1023.1 |
| 20260501223106 | 51 | 0 | 0.0 | 0.0 | 0.00 | 0.00 | 0.00 | 76 | 1023.2 |
| 20260501222545 | 51 | 0 | 0.0 | 0.0 | 0.00 | 0.00 | 0.00 | 76 | 1023.2 |
| 20260501222042 | 51 | 0 | 0.0 | 0.0 | 0.00 | 0.00 | 0.00 | 76 | 1023.3 |
| 20260501221551 | 51 | 0 | 0.0 | 0.0 | 0.00 | 0.00 | 0.00 | 76 | 1023.2 |
| 20260501221044 | 51 | 0 | 0.0 | 0.0 | 0.00 | 0.00 | 0.00 | 75 | 1023.4 |
| 20260501220541 | 51 | 0 | 0.0 | 0.0 | 0.00 | 0.00 | 0.00 | 75 | 1023.4 |
| 20260501220051 | 52 | 0 | 0.0 | 0.0 | 0.00 | 0.00 | 0.00 | 75 | 1023.4 |
| 20260501215544 | 52 | 0 | 0.0 | 0.0 | 0.00 | 0.00 | 0.00 | 74 | 1023.4 |
| 20260501215045 | 52 | 0 | 0.0 | 0.0 | 0.00 | 0.00 | 0.00 | 74 | 1023.5 |
| 20260501214550 | 52 | 0 | 0.0 | 0.0 | 0.00 | 0.00 | 0.00 | 74 | 1023.5 |
| 20260501214044 | 52 | 0 | 0.0 | 0.0 | 0.00 | 0.00 | 0.00 | 73 | 1023.5 |
| 20260501213544 | 52 | 0 | 0.0 | 0.0 | 0.00 | 0.00 | 0.00 | 73 | 1023.5 |
| 20260501213104 | 53 | 0 | 0.0 | 0.0 | 0.00 | 0.00 | 0.00 | 72 | 1023.6 |
| 20260501212545 | 53 | 0 | 0.0 | 0.0 | 0.00 | 0.00 | 0.00 | 71 | 1023.6 |
| 20260501212045 | 53 | 0 | 0.0 | 0.0 | 0.00 | 0.00 | 0.00 | 70 | 1023.6 |
| 20260501211551 | 53 | 0 | 0.0 | 0.0 | 0.00 | 0.00 | 0.00 | 69 | 1023.6 |
| 20260501211042 | 54 | 0 | 0.0 | 0.0 | 0.00 | 0.00 | 0.00 | 68 | 1023.5 |
| 20260501210543 | 54 | 0 | 0.0 | 0.0 | 0.00 | 0.00 | 0.00 | 68 | 1023.5 |
| 20260501210055 | 54 | 0 | 0.0 | 0.0 | 0.00 | 0.00 | 0.00 | 67 | 1023.4 |
| 20260501205542 | 55 | 0 | 0.0 | 0.0 | 0.00 | 0.00 | 0.00 | 66 | 1023.6 |